TIME,DELAY(SENSOR),PRES,T(CTD),SAL,OXYGEN,RAWTEMP,T(OPTODE),TCPHASE,FLUOR,BETA(BETA700),BETA(BETA412),BETA(BETA440),CDOM,C(CSC),ED(ED412.40),ED(ED444.00),ED(ED489.70),ED(ED554.30),LU(LU411.80),LU(LU443.40),LU(LU489.60),LU(LU554.10),COMP,TILTX,TILTX(TILTY),CHECK
1374356973,5805,497.4100036621094000,6.5034999847412110,34.1223983764648440,75.1597671508789000,603.0396728515625000,6.4860291481018070,49.5273284912109400,52,102,86,80,78,15351,2147743232,2147422902,2148007350,2147875483,2147628818,2147066395,2148244352,2147200621,3082,4,13,2089
1374357125,5810,485.0100097656250000,6.6760997772216800,34.1158981323242200,81.1775512695312500,597.8107910156250000,6.6549639701843260,48.7411613464355500,51,105,84,79,78,15352,2147747419,2147424758,2148008941,2147876342,2147629613,2147075739,2148241554,2147201545,1627,3,13,30984
1374357246,5807,474.0799865722656000,6.7965002059936520,34.1057014465332000,87.4333572387695300,594.0191040039062000,6.7773017883300780,47.9664916992187500,51,103,85,78,78,15351,2147746139,2147426989,2148006326,2147875099,2147628187,2147069961,2148241298,2147200621,460,4,13,21988
1374357369,5809,462.9299926757812500,7.0075998306274410,34.0909004211425800,95.5798263549804700,587.3460083007812000,6.9922809600830080,46.9684181213378900,51,107,85,79,77,15354,2147741019,2147421312,2148007286,2147873636,2147624676,2147071533,2148237412,2147204032,2481,4,12,64782
1374357490,5807,451.8299865722656000,7.2841000556945800,34.0868988037109400,106.0791015625000000,579.0612792968750000,7.2586121559143070,45.7351188659668000,50,104,88,81,75,15350,2147743213,2147423981,2148003675,2147875035,2147626029,2147079222,2148237202,2147200694,1677,4,13,42398
1374357600,5807,441.3399963378906000,7.4794001579284670,34.0853004455566400,113.3379974365234400,572.7783203125000000,7.4601798057556150,44.9054718017578100,50,105,84,80,75,15351,2147743725,2147425481,2148004635,2147874962,2147626587,2147073417,2148242157,2147201078,1452,4,13,20216
1374357712,5809,430.6600036621094000,7.6626000404357910,34.0864982604980500,119.8639984130859400,566.4307250976562000,7.6634650230407715,44.1693992614746100,50,106,87,80,75,15350,2147741750,2147424512,2148004845,2147876406,2147623085,2147077824,2148232795,2147204534,1090,4,13,26304
1374357822,5811,420.3699951171875000,7.8972001075744630,34.0903015136718750,125.8482971191406200,559.5717163085938000,7.8827381134033200,43.4945182800293000,51,104,88,79,75,15350,2147741385,2147425216,2148004589,2147871305,2147623049,2147079725,2148236032,2147204955,3529,3,13,61018
1374357943,5811,409.3299865722656000,8.1061000823974610,34.0901985168457000,132.2563018798828000,552.7189941406250000,8.1014118194580080,42.7972297668457000,50,105,86,80,75,15349,2147739337,2147425152,2148003721,2147875940,2147622354,2147075428,2148236132,2147202084,2192,4,13,63576
1374358066,5811,398.8099975585937500,8.4629001617431640,34.0858001708984400,140.8105926513672000,541.9652709960938000,8.4437808990478520,41.8660011291503900,50,104,88,79,74,15344,2147735396,2147425682,2148004580,2147874249,2147622281,2147078930,2148231158,2147203236,1563,3,13,12897
1374358220,5809,387.8399963378906000,8.7704000473022460,34.0880012512207000,157.2619934082031200,532.2592163085938000,8.7519989013671880,40.3550415039062500,50,104,86,79,74,15352,2147735232,2147424082,2148005613,2147876077,2147618880,2147084553,2148229229,2147200950,795,4,13,61986
1374358383,5812,376.4700012207031000,8.9263000488281250,34.0910987854003900,163.7738952636718800,526.6876831054688000,8.9285888671875000,39.7580490112304700,50,106,85,79,71,15351,2147734838,2147421540,2148005174,2147875209,2147615917,2147083785,2148227730,2147204580,30,4,13,44790
1374358514,5805,365.3099975585937500,9.3472995758056640,34.0960998535156250,174.9454040527343800,513.7274780273438000,9.3384561538696290,38.7182502746582000,50,106,88,78,72,15350,2147736603,2147427757,2148002432,2147873892,2147615725,2147086418,2148224512,2147204452,571,3,13,30056
1374358637,5808,353.9800109863281000,9.6143999099731450,34.1040992736816400,184.0207977294922000,504.9436950683594000,9.6155462265014650,37.9396095275878900,50,105,86,80,71,15350,2147732873,2147427693,2148005074,2147876891,2147614308,2147090742,2148224301,2147203410,2899,3,13,7121
1374358747,5808,343.0899963378906000,10.0907001495361330,34.1195983886718750,195.3242034912109400,490.1146850585937500,10.0820999145507810,36.9491996765136700,49,105,85,79,71,15350,2147733211,2147427757,2148003885,2147873380,2147610468,2147098358,2148223341,2147203748,2642,3,13,58477
1374358857,5808,332.1700134277344000,10.5274000167846680,34.1458015441894500,206.7382965087890600,476.4305114746094000,10.5113201141357420,36.0197792053222660,49,104,85,80,68,15352,2147731593,2147427099,2148004242,2147874368,2147611190,2147097261,2148218212,2147202962,1264,3,14,34713
1374358969,5808,321.3200073242187500,11.0557003021240230,34.1775016784668000,217.7514038085937500,459.4389953613281000,11.0426397323608400,35.1056709289550800,48,104,88,80,68,15353,2147730898,2147426962,2148003126,2147872420,2147605037,2147108992,2148221851,2147203803,3544,3,13,37259
1374359090,5810,310.4899902343750000,11.4350004196167000,34.2078018188476560,226.3186035156250000,446.9598999023437500,11.4317598342895500,34.4361305236816400,47,104,87,80,68,15354,2147730852,2147428032,2148005238,2147874057,2147604507,2147109312,2148213412,2147209417,1688,3,13,50448
1374359222,5810,299.5400085449219000,11.7049999237060550,34.2009010314941400,224.5709991455078000,438.4526977539062500,11.6965198516845700,34.3938713073730500,48,105,86,79,68,15350,2147726793,2147427419,2148009078,2147876754,2147602422,2147108498,2148215881,2147209170,964,4,13,16451
1374359356,5809,289.0899963378906000,12.0157003402709960,34.2013015747070300,214.6660003662109400,428.3689880371094000,12.0098495483398440,34.7803306579589840,48,104,84,80,68,15350,2147724224,2147425298,2148013888,2147873142,2147602038,2147114185,2148215131,2147207341,998,3,14,763
1374359510,5809,278.1499938964844000,13.0812997817993160,34.2706985473632800,216.8860015869140600,394.6176147460937500,13.0549697875976560,34.1277198791503900,48,105,85,79,68,15346,2147723584,2147430857,2148021366,2147874889,2147598546,2147118921,2148216356,2147206464,2902,3,14,55477
1374359662,5805,265.8599853515625000,13.2826995849609380,34.2896995544433600,218.4290924072265600,385.4605102539062500,13.3376398086547850,33.9023399353027340,49,102,85,79,67,15345,2147726116,2147432548,2148031478,2147874121,2147597129,2147126628,2148218267,2147212141,1828,3,14,34366
1374359769,5807,254.5899963378906200,13.8083000183105470,34.3381996154785160,220.2745056152343800,368.7554016113281000,13.8524703979492190,33.5473899841308600,48,105,84,79,66,15345,2147717028,2147439753,2148054985,2147874861,2147591259,2147134491,2148228955,2147210880,979,3,14,4445
1374359879,5809,243.5599975585937500,14.4532003402709960,34.3768997192382800,216.6407012939453000,350.1986999511719000,14.4231901168823240,33.4676399230957000,49,104,84,79,66,15342,2147720411,2147460498,2148117330,2147873755,2147590290,2147142875,2148249536,2147214052,3304,3,13,42804
1374360002,5808,232.4299926757812500,14.9010000228881840,34.4240989685058600,217.7805938720703000,331.9845886230469000,14.9823303222656250,33.1353492736816400,50,107,85,79,66,15344,2147722861,2147487515,2148200128,2147873133,2147586157,2147167149,2148288758,2147216146,2679,3,14,31168
1374360134,5808,222.1000061035156200,15.5892000198364260,34.4886016845703100,216.8137054443359400,312.8612060546875000,15.5684499740600590,32.9077186584472660,49,107,88,80,66,15338,2147721910,2147497362,2148218404,2147871698,2147586852,2147177252,2148297298,2147215954,2612,3,13,17190
1374360319,5811,208.3000030517578000,16.1397991180419920,34.5646018981933600,217.7279052734375000,291.3960876464844000,16.2254199981689450,32.5484313964843750,50,107,87,80,66,15335,2147731117,2147565220,2148382902,2147872658,2147585773,2147223213,2148369654,2147225124,1070,2,13,51438
1374360448,5809,197.0000000000000000,17.3999004364013670,34.7196998596191400,214.2413024902343800,252.7335968017578000,17.4070491790771500,32.1885604858398440,52,119,87,81,65,15319,2147751424,2147676681,2148653924,2147874797,2147590957,2147293568,2148500178,2147233170,2846,3,13,40900
1374360503,5810,192.1199951171875000,17.7831993103027340,34.7671012878418000,210.4797973632812500,240.4060974121093800,17.7835502624511720,32.2221412658691400,53,117,88,81,65,15319,2147749494,2147655753,2148574564,2147874340,2147587958,2147285266,2148466322,2147230573,2825,2,14,36378
1374360582,5810,185.0700073242187500,18.0951004028320300,34.8072013854980500,209.6352996826172000,230.3244018554687500,18.0914306640625000,32.1282882690429700,54,115,87,80,66,15315,2147765659,2147712740,2148686939,2147874221,2147593764,2147320219,2148513316,2147232832,2393,2,14,24449
1374360637,5808,180.3200073242187500,18.4964008331298830,34.8536987304687500,209.0514068603515600,215.8954925537109400,18.5320701599121100,31.9603691101074220,59,117,89,81,63,15313,2147796470,2147824804,2148935350,2147878336,2147602605,2147386212,2148633188,2147243017,2626,2,14,48652
1374360692,5806,175.7400054931640600,18.7584991455078120,34.8869018554687500,209.4588928222656200,208.5923004150390600,18.7551193237304700,31.8369102478027340,62,117,86,82,62,15309,2147828946,2147918217,2149127552,2147878180,2147612955,2147439433,2148723803,2147246400,2278,3,14,24098
1374360747,5809,171.2700042724609400,19.0102996826171880,34.9127998352050800,208.7861022949218800,200.2893981933593800,19.0087394714355470,31.7597694396972660,67,117,85,83,63,15302,2147858404,2148012909,2149309851,2147879661,2147626322,2147491648,2148800539,2147252214,1907,2,15,39797
1374360802,5805,166.9100036621093800,19.1032009124755860,34.9240989685058600,208.6058044433593800,197.0746002197265600,19.1069507598876950,31.7257499694824220,69,118,89,82,65,15302,2147875730,2148026441,2149295698,2147876096,2147632448,2147502025,2148781878,2147251611,1629,2,15,21925
1374360857,5807,162.4799957275390600,19.2751998901367200,34.9418983459472660,207.8489990234375000,190.8421020507812500,19.2973804473876950,31.6823997497558600,73,118,89,82,64,15299,2147916470,2148116534,2149441673,2147881974,2147644306,2147543744,2148835355,2147258596,1787,2,15,1939
1374360940,5809,156.7700042724609400,19.7656993865966800,34.9902000427246100,206.8032989501953000,175.8289947509765600,19.7562599182128900,31.5358505249023440,80,122,89,82,63,15294,2147932662,2148108644,2149373961,2147880448,2147651611,2147533577,2148799268,2147255259,1377,2,15,8363
1374361006,5806,153.3000030517578000,20.2045001983642580,35.0400009155273440,205.9828948974609400,161.9326934814453000,20.1812896728515620,31.3930492401123050,88,121,91,82,63,15286,2148083593,2148511908,2150157293,2147882962,2147707410,2147742409,2149129481,2147282505,1252,2,15,10495
1374361094,5809,150.1100006103515600,20.3980007171630860,35.0721015930175800,207.6835937500000000,155.0269927978515600,20.3926200866699220,31.2061195373535160,91,122,88,80,63,15283,2148203529,2148778130,2150633124,2147889444,2147749376,2147866642,2149317357,2147299008,576,2,15,15241
1374361217,5808,146.0899963378906200,20.6611003875732420,35.0811004638671900,208.0124969482422000,147.5834960937500000,20.6205101013183600,31.0882492065429700,98,122,89,82,63,15269,2148208493,2148678006,2150341138,2147887588,2147746907,2147815506,2149176246,2147290368,451,2,15,7216
1374361349,5809,142.0599975585937500,21.0074005126953120,35.1239013671875000,208.7575073242187500,135.5809020996093800,20.9882392883300780,30.8869895935058600,108,122,89,83,63,15262,2148664731,2149705097,2152225307,2147908544,2147909430,2148286500,2149925860,2147346486,729,2,15,9458
1374361492,5807,138.1699981689453000,21.2444992065429700,35.1421012878418000,210.1112976074218800,127.7987976074218800,21.2268505096435550,30.7104892730712900,114,132,90,82,62,15251,2148542491,2149249307,2151184813,2147897426,2147863670,2148055981,2149490614,2147320301,2915,2,15,25498
1374361625,5805,134.0700073242187500,21.3969001770019530,35.1557006835937500,211.8760986328125000,122.5169982910156200,21.3888797760009770,30.5461502075195300,114,127,88,83,62,15240,2148654875,2149298971,2151071661,2147898276,2147899968,2148048027,2149401590,2147313609,1908,2,15,29786
1374361735,5808,129.9600067138672000,21.6683998107910160,35.1847991943359400,212.9449005126953000,115.3210983276367200,21.6097602844238280,30.3947792053222660,119,128,90,82,61,15235,2149278902,2150343835,2152637211,2147919771,2148123209,2148507629,2150018276,2147367131,1442,2,15,8554
1374361885,5811,124.4000015258789000,21.9573001861572270,35.2191009521484400,217.4181060791015600,104.2087020874023400,21.9511508941650400,30.0164203643798830,122,125,86,84,61,15225,2150522907,2152234852,2155248722,2147953627,2148576429,2149311616,2150996077,2147451931,2866,1,15,47903
1374361962,5811,120.3000030517578100,22.0536003112792970,35.2303009033203100,219.3170928955078000,100.2096023559570300,22.0741100311279300,29.8676490783691400,129,127,90,82,61,15221,2150982454,2152692672,2155587776,2147964461,2148753920,2149511478,2151131053,2147467154,2062,2,16,19394
1374362039,5811,116.2500000000000000,22.3598995208740230,35.2477989196777340,221.1864929199218800,91.2705612182617200,22.3491497039794920,29.6574497222900400,145,128,91,85,60,15205,2152282075,2154480173,2157796809,2148000100,2149231049,2150244306,2151962349,2147542491,1675,2,16,28780
1374362116,5809,112.5500030517578100,22.5755996704101560,35.2728004455566400,222.7250976562500000,84.0325698852539000,22.5720500946044920,29.4878902435302730,157,126,90,83,59,15198,2154398153,2157433618,2161498459,2148071350,2150009216,2151441664,2153332681,2147676443,1361,2,16,55094
1374362206,5808,108.7300033569336000,22.7513008117675780,35.3000984191894500,227.3708038330078000,78.4728775024414000,22.7434005737304700,29.1890907287597660,154,122,90,83,60,15193,2157926966,2162365101,2167618029,2148197458,2151337197,2153454390,2155621741,2147888201,632,1,16,15246
1374362305,5817,104.3899993896484400,22.8089008331298830,35.3115005493164060,231.2826995849609400,75.9609832763671900,22.8208599090576170,28.9700908660888670,144,124,88,81,60,15193,2162031213,2167677366,2173592841,2148346788,2152992091,2155738642,2158008018,2148122852,3589,2,16,26614
1374362382,5811,100.9300003051757800,22.9958992004394530,35.3269996643066400,233.8717041015625000,71.8685379028320300,22.9471092224121100,28.7965793609619140,101,123,91,82,60,15214,2165449142,2171991552,2178256256,2148498029,2154501888,2157770130,2160023232,2148324772,99,2,15,42830
1374362437,5810,98.7600021362304700,23.0937004089355470,35.3249015808105500,234.8692932128906200,67.6721420288086000,23.0766391754150400,28.6970691680908200,93,125,91,83,60,15217,2167441728,2174272073,2180381504,2148588726,2155519268,2159047195,2161183177,2148442441,3511,1,15,5186
1374362494,5807,96.7399978637695300,23.1543006896972660,35.3221015930175800,235.6719055175781200,65.5210800170898400,23.1430606842041000,28.6328792572021500,94,126,88,84,60,15213,2168595986,2175343286,2180999067,2148630573,2156219154,2159823597,2161759369,2148496585,2760,1,16,42706
1374362549,5811,94.9899978637695300,23.2112007141113280,35.3260002136230500,236.0399017333984400,63.6088104248046900,23.2021198272705080,28.5918903350830080,92,124,91,84,57,15207,2173167506,2181291117,2187932571,2148850432,2158234230,2162695762,2164727963,2148786368,2622,1,16,43541
1374362615,5808,92.9300003051757800,23.2411994934082030,35.3264007568359400,236.2055053710937500,62.4899101257324200,23.2366905212402340,28.5703601837158200,90,128,91,84,59,15214,2172362971,2179410688,2184750006,2148827986,2158083172,2162103286,2163677430,2148701686,2525,1,16,1082
1374362681,5805,90.9400024414062500,23.2826995849609380,35.3270988464355500,236.3188018798828000,61.1324195861816400,23.2786407470703120,28.5479297637939450,89,124,91,83,59,15215,2175158281,2182417380,2187535360,2148965686,2159547712,2163915273,2165255122,2148869330,2389,1,16,65492
1374362747,5809,89.1100006103515600,23.3264007568359380,35.3301010131835940,236.4174957275390600,59.7674484252929700,23.3208198547363280,28.5263404846191400,85,126,89,83,57,15205,2173773997,2179967076,2183967021,2148888621,2159109933,2162964571,2163908205,2148738432,2095,2,16,11803
1374362831,5809,86.6299972534179700,23.3950996398925780,35.3413009643554700,237.6412048339843800,57.5199089050293000,23.3903007507324220,28.4420890808105470,82,127,88,84,58,15211,2185035958,2192852379,2197921170,2149454025,2164603803,2170082459,2170512283,2149404050,1837,2,16,39881
1374362886,5807,84.5599975585937500,23.5156002044677730,35.3558006286621100,238.0030975341797000,53.4852905273437500,23.5150794982910160,28.3752002716064450,79,124,91,85,60,15210,2192282011,2200975716,2205363108,2149795693,2168658697,2174977152,2174659858,2149810715,1887,1,16,56189
1374362941,5808,82.8099975585937500,23.6305999755859380,35.3563995361328100,236.5957946777343800,49.5222816467285160,23.6377105712890620,28.3899307250976560,75,123,88,84,58,15223,2202371648,2212119606,2216684754,2150354011,2174023222,2181517540,2180225581,2150368850,1817,1,16,29561
1374362996,5809,81.3199996948242200,23.7880992889404300,35.3656997680664060,239.6676025390625000,44.7662811279296900,23.7849903106689450,28.1912193298339840,72,124,93,85,59,15207,2191281371,2197070363,2198667712,2149645458,2169691428,2174880841,2172940233,2149641142,1680,1,16,8016
1374363084,5810,79.5199966430664000,24.1737995147705080,35.3833999633789060,242.2801971435547000,33.4735107421875000,24.1351108551025400,27.9344406127929700,72,124,93,85,55,15192,2196326427,2202237101,2203664521,2149974701,2173475419,2178895076,2175794011,2149932013,1476,1,16,62433
1374363201,5808,76.9700012207031200,24.3511009216308600,35.3973999023437500,244.1165008544922000,26.7955093383789060,24.3424491882324220,27.7712593078613280,69,127,92,84,58,15180,2193693714,2197416201,2197075986,2149783232,2174407862,2178556827,2174100736,2149742381,551,1,16,28913
1374363256,5807,75.1399993896484400,24.4316997528076170,35.4065017700195300,245.4965972900390600,23.8867797851562500,24.4328403472900400,27.6751098632812500,69,129,92,84,57,15179,2195609371,2198917906,2198112905,2149935725,2176616987,2180460242,2175109110,2149848594,154,1,16,64257
1374363322,5805,72.7399978637695300,24.5592002868652340,35.4113998413085940,246.9673004150390600,20.4779491424560550,24.5388202667236330,27.5695304870605470,68,127,93,85,57,15176,2206921627,2210954596,2210233810,2150837696,2184718528,2189150235,2181728210,2150553444,208,1,16,41002
1374363377,5809,70.7399978637695300,24.5907993316650400,35.4150009155273440,247.5440979003906200,19.1101303100585940,24.5813598632812500,27.5278491973876950,68,127,92,86,57,15170,2204228178,2206919753,2205295725,2150691456,2184716955,2188293238,2180393618,2150414317,851,1,16,59905
1374363432,5808,68.4599990844726600,24.6354999542236330,35.4137001037597660,248.0514984130859400,17.3971099853515620,24.6346607208251950,27.4850692749023440,68,127,91,85,55,15173,2218996096,2221841874,2220693604,2151849097,2196436644,2200986541,2190148690,2151427830,1489,1,16,23296
1374363515,5807,64.4199981689453100,24.8150005340576170,35.4135017395019500,247.8361968994140600,12.1065998077392580,24.7993602752685550,27.4296798706054700,67,129,90,85,54,15164,2258764717,2264984868,2263714880,2155817051,2227211190,2234395666,2216208036,2154281289,1720,2,16,32454
1374363570,5807,61.5800018310546900,24.8827991485595700,35.4132995605468750,247.5339965820312500,9.3473548889160160,24.8853092193603500,27.4090003967285160,65,129,91,85,56,15159,2242804516,2245847634,2242991762,2154752274,2217558107,2221694043,2204575753,2153152749,1554,1,15,20934
1374363625,5804,59.1800003051757800,24.9852008819580080,35.4155006408691400,247.3735046386718800,6.4711780548095700,24.9749603271484380,27.3806495666503900,63,125,93,86,57,15159,2237648640,2238778980,2235073472,2154646208,2215586889,2218002706,2200719625,2152816365,608,1,16,45950
1374363680,5805,57.4000015258789060,24.9979000091552730,35.4169006347656250,247.5316925048828000,5.7340621948242190,24.9979496002197270,27.3650093078613280,63,127,91,86,54,15148,2237687305,2237716086,2232947465,2154701257,2218157604,2219498166,2200937435,2152853284,3145,1,16,22651
1374363735,5818,56.0600013732910160,25.0834007263183600,35.4157981872558600,247.4158935546875000,3.2136080265045166,25.0765590667724600,27.3391609191894530,63,127,93,87,56,15150,2238897234,2237633856,2231842313,2154849417,2220429650,2220410953,2200552301,2152875712,2670,1,16,23175
1374363819,5809,54.2299995422363300,25.5708999633789060,35.4197006225585940,245.5043945312500000,-11.8877696990966800,25.5483398437500000,27.2373008728027340,63,126,90,84,57,15146,2265280722,2263454637,2256163282,2157744146,2244450496,2243540726,2216460918,2154700946,1895,1,16,27947
1374363918,5808,52.5099983215332000,25.9629993438720700,35.4289016723632800,243.6452026367187500,-23.2419109344482420,25.9039897918701170,27.1796207427978500,63,127,93,85,58,15143,2333195008,2333976566,2326684178,2167106733,2305362267,2305124873,2261462445,2160194029,2608,2,16,51597
1374364039,5807,50.6399993896484400,26.3780002593994140,35.4202995300293000,240.4322052001953000,-38.0709686279296900,26.3697395324707030,27.1393108367919920,61,130,91,85,54,15146,2344316864,2344412781,2337143744,2169404836,2318769042,2317058102,2269076800,2161140726,924,0,16,20165
1374364145,5806,47.6599998474121100,26.4097003936767580,35.4210014343261700,239.8083953857422000,-39.3727989196777340,26.4106998443603500,27.1508998870849600,60,126,88,87,56,15150,2326934985,2324255835,2315307547,2169542299,2309259099,2303465344,2257167012,2160238902,3285,1,16,38324
1374364200,5809,45.2400016784668000,26.4193000793457030,35.4221992492675800,239.5901031494140600,-39.9574699401855500,26.4291000366210940,27.1533298492431640,60,127,93,86,58,15133,2356999067,2355715136,2348636050,2177134006,2337707584,2331075209,2277264649,2163370203,226,1,16,6764
1374364255,5805,43.0400009155273440,26.4377994537353500,35.4221000671386700,239.6143951416015600,-40.6113891601562500,26.4496803283691400,27.1444492340087900,59,126,89,84,58,15143,2365524498,2363357202,2355458240,2180398034,2352094601,2343071305,2284698432,2164646884,78,2,16,44833
1374364310,5806,41.1599998474121100,26.6919002532959000,35.3751983642578100,237.4685974121093800,-48.0018196105957000,26.6825008392334000,27.1494102478027340,59,124,92,86,53,15134,2380789202,2378788772,2370551753,2184640566,2371930212,2360510601,2296231405,2166473682,3199,2,17,25125
1374364764,5808,39.0600013732910160,27.2150993347167970,35.2792015075683600,227.8768005371093800,-64.9743728637695300,27.2186603546142580,27.3774700164794920,54,114,91,82,53,15191,2310392292,2304671350,2295174948,2172944786,2321547200,2304853613,2252081115,2160655963,3232,1,17,32554
1374364819,5810,37.0699996948242200,27.2595005035400400,35.2731018066406250,227.1580963134765600,-66.4015884399414000,27.2638397216796880,27.3934001922607420,54,114,89,83,57,15185,2302860955,2296565942,2287022208,2172877622,2320360411,2301472438,2248440310,2160411346,2933,0,17,20503
1374364874,5809,35.0299987792968750,27.2842998504638670,35.2680015563964840,226.7590026855468800,-67.2344970703125000,27.2902202606201170,27.4017601013183600,54,114,90,81,54,15187,2302326966,2296078912,2287080073,2174989778,2324112045,2303677924,2249302427,2160942793,2509,0,16,35743
1374364929,5809,32.9799995422363300,27.2852993011474600,35.2492980957031250,226.5682067871093800,-67.3288116455078100,27.2931995391845700,27.4095497131347660,52,116,88,83,55,15184,2299049197,2292684416,2284299492,2176919314,2324283666,2302397083,2247848585,2161230436,2302,0,16,26556
1374364984,5807,30.9500007629394530,27.2786006927490230,35.2457008361816400,226.3645935058593800,-67.2464904785156200,27.2905998229980470,27.4202003479003900,52,114,88,84,57,15192,2301022317,2294540809,2286557906,2179948096,2329498432,2305789961,2249527460,2161972196,2674,1,16,24366